Station Historical Data
Daily Summary for October 6, 2017 Units:  English    Metric   Both
Next Day »
Daily Weekly Monthly Yearly Custom
  High: Low: Average:
Temperature: 78.4 °F 57.3 °F 65.8 °F
Dew Point: 41.3 °F 28.9 °F 34.7 °F
Humidity: 44% 19% 32%
Wind Speed: 12.0mph 0.0mph 1.5mph
Wind Gust: 20.0mph - -
Wind- - SE
Pressure: 30.10 in 30.00 in -
Precipitation: 0.00 in    
Historical Graphs
 
 
Tabular Data for October 6, 2017
Time Temperature Dew Point Pressure Wind Wind Speed Wind Gust Humidity Rainfall Rate (Hourly) solar Conditions
00:04 57.9 °F 36.1 °F 30.04 in East 5.0 mph 9.0 mph 44% 0.00 in 0.00 W/m2
00:09 57.8 °F 35.5 °F 30.04 in ESE 4.0 mph 11.0 mph 43% 0.00 in 0.00 W/m2
00:14 57.9 °F 35.6 °F 30.04 in ESE 1.0 mph 8.0 mph 43% 0.00 in 0.00 W/m2
00:19 57.9 °F 35.0 °F 30.04 in Calm   6.0 mph 42% 0.00 in 0.00 W/m2
00:24 58.1 °F 35.2 °F 30.05 in Calm   4.0 mph 42% 0.00 in 0.00 W/m2
00:29 58.2 °F 35.2 °F 30.05 in Calm     42% 0.00 in 0.00 W/m2
00:34 58.2 °F 35.2 °F 30.05 in Calm     42% 0.00 in 0.00 W/m2
00:39 58.3 °F 34.7 °F 30.05 in Calm     41% 0.00 in 0.00 W/m2
00:49 58.4 °F 34.8 °F 30.05 in Calm     41% 0.00 in 0.00 W/m2
00:54 58.4 °F 34.8 °F 30.05 in Calm     41% 0.00 in 0.00 W/m2
00:59 58.3 °F 34.7 °F 30.05 in Calm     41% 0.00 in 0.00 W/m2
01:04 58.2 °F 34.6 °F 30.05 in Calm     41% 0.00 in 0.00 W/m2
01:09 58.1 °F 34.5 °F 30.05 in Calm     41% 0.00 in 0.00 W/m2
01:14 58.0 °F 33.8 °F 30.05 in Calm     40% 0.00 in 0.00 W/m2
01:19 57.8 °F 33.7 °F 30.05 in Calm     40% 0.00 in 0.00 W/m2
01:29 57.4 °F 33.3 °F 30.05 in Calm   4.0 mph 40% 0.00 in 0.00 W/m2
01:34 57.3 °F 32.6 °F 30.05 in Calm   5.0 mph 39% 0.00 in 0.00 W/m2
01:39 57.3 °F 31.9 °F 30.05 in East 8.0 mph 8.0 mph 38% 0.00 in 0.00 W/m2
01:44 57.3 °F 31.3 °F 30.05 in SE 2.0 mph 13.0 mph 37% 0.00 in 0.00 W/m2
01:49 57.4 °F 32.0 °F 30.05 in ESE 8.0 mph 13.0 mph 38% 0.00 in 0.00 W/m2
01:54 57.5 °F 32.8 °F 30.05 in East 6.0 mph 15.0 mph 39% 0.00 in 0.00 W/m2
01:59 57.6 °F 32.2 °F 30.05 in Calm   20.0 mph 38% 0.00 in 0.00 W/m2
02:04 57.7 °F 32.3 °F 30.05 in East 6.0 mph 14.0 mph 38% 0.00 in 0.00 W/m2
02:09 57.9 °F 31.8 °F 30.04 in ESE 1.0 mph 12.0 mph 37% 0.00 in 0.00 W/m2
02:14 58.1 °F 31.3 °F 30.04 in ESE 4.0 mph 13.0 mph 36% 0.00 in 0.00 W/m2
02:19 58.4 °F 31.6 °F 30.04 in ESE 9.0 mph 14.0 mph 36% 0.00 in 0.00 W/m2
02:24 58.6 °F 31.8 °F 30.04 in ESE 7.0 mph 15.0 mph 36% 0.00 in 0.00 W/m2
02:29 58.8 °F 31.2 °F 30.04 in ESE 7.0 mph 15.0 mph 35% 0.00 in 0.00 W/m2
02:34 59.1 °F 31.5 °F 30.04 in ESE 6.0 mph 15.0 mph 35% 0.00 in 0.00 W/m2
02:40 59.3 °F 31.0 °F 30.04 in Calm   14.0 mph 34% 0.00 in 0.00 W/m2
02:45 59.4 °F 31.0 °F 30.04 in East 5.0 mph 13.0 mph 34% 0.00 in 0.00 W/m2
02:50 59.5 °F 31.1 °F 30.04 in Calm   13.0 mph 34% 0.00 in 0.00 W/m2
02:55 59.6 °F 31.2 °F 30.04 in East 6.0 mph 15.0 mph 34% 0.00 in 0.00 W/m2
03:00 59.7 °F 30.6 °F 30.04 in East 5.0 mph 19.0 mph 33% 0.00 in 0.00 W/m2
03:05 59.8 °F 31.4 °F 30.04 in East 7.0 mph 15.0 mph 34% 0.00 in 0.00 W/m2
03:10 59.9 °F 30.8 °F 30.04 in East 9.0 mph 16.0 mph 33% 0.00 in 0.00 W/m2
03:15 60.0 °F 30.8 °F 30.04 in East 11.0 mph 15.0 mph 33% 0.00 in 0.00 W/m2
03:20 60.2 °F 31.0 °F 30.04 in East 4.0 mph 19.0 mph 33% 0.00 in 0.00 W/m2
03:25 60.4 °F 31.2 °F 30.04 in East 6.0 mph 16.0 mph 33% 0.00 in 0.00 W/m2
03:30 60.6 °F 30.6 °F 30.04 in ESE 5.0 mph 19.0 mph 32% 0.00 in 0.00 W/m2
03:35 60.8 °F 30.8 °F 30.04 in East 6.0 mph 14.0 mph 32% 0.00 in 0.00 W/m2
03:40 61.0 °F 31.0 °F 30.04 in East 7.0 mph 14.0 mph 32% 0.00 in 0.00 W/m2
03:45 61.1 °F 31.0 °F 30.04 in East 12.0 mph 15.0 mph 32% 0.00 in 0.00 W/m2
03:50 61.2 °F 31.1 °F 30.04 in East 1.0 mph 14.0 mph 32% 0.00 in 0.00 W/m2
03:55 61.3 °F 31.2 °F 30.04 in Calm   18.0 mph 32% 0.00 in 0.00 W/m2
04:00 61.3 °F 30.4 °F 30.04 in SE 1.0 mph 15.0 mph 31% 0.00 in 0.00 W/m2
04:05 61.4 °F 30.5 °F 30.04 in East 5.0 mph 13.0 mph 31% 0.00 in 0.00 W/m2
04:10 61.6 °F 30.7 °F 30.04 in East 7.0 mph 11.0 mph 31% 0.00 in 0.00 W/m2
04:15 61.7 °F 30.8 °F 30.04 in East 3.0 mph 15.0 mph 31% 0.00 in 0.00 W/m2
04:20 61.7 °F 30.8 °F 30.04 in Calm   12.0 mph 31% 0.00 in 0.00 W/m2
04:25 61.8 °F 30.9 °F 30.04 in East 7.0 mph 12.0 mph 31% 0.00 in 0.00 W/m2
04:30 61.8 °F 30.9 °F 30.04 in East 11.0 mph 18.0 mph 31% 0.00 in 0.00 W/m2
04:35 61.8 °F 30.9 °F 30.04 in ESE 6.0 mph 15.0 mph 31% 0.00 in 0.00 W/m2
04:40 61.8 °F 30.9 °F 30.04 in ESE 6.0 mph 14.0 mph 31% 0.00 in 0.00 W/m2
04:45 61.8 °F 30.9 °F 30.04 in East 7.0 mph 15.0 mph 31% 0.00 in 0.00 W/m2
04:50 61.8 °F 30.9 °F 30.04 in Calm   9.0 mph 31% 0.00 in 0.00 W/m2
04:55 61.9 °F 31.0 °F 30.04 in East 8.0 mph 9.0 mph 31% 0.00 in 0.00 W/m2
05:00 61.8 °F 30.9 °F 30.04 in East 1.0 mph 12.0 mph 31% 0.00 in 0.00 W/m2
05:10 61.8 °F 30.9 °F 30.04 in ESE 6.0 mph 8.0 mph 31% 0.00 in 0.00 W/m2
05:15 61.7 °F 30.8 °F 30.04 in ESE 4.0 mph 8.0 mph 31% 0.00 in 0.00 W/m2
05:20 61.6 °F 30.7 °F 30.04 in ESE 7.0 mph 9.0 mph 31% 0.00 in 0.00 W/m2
05:25 61.4 °F 30.5 °F 30.04 in Calm   8.0 mph 31% 0.00 in 0.00 W/m2
05:30 61.3 °F 30.4 °F 30.04 in Calm   6.0 mph 31% 0.00 in 0.00 W/m2
05:35 61.1 °F 31.0 °F 30.04 in Calm   6.0 mph 32% 0.00 in 0.00 W/m2
05:40 60.9 °F 30.9 °F 30.04 in Calm   6.0 mph 32% 0.00 in 0.00 W/m2
05:45 60.8 °F 30.8 °F 30.04 in Calm   7.0 mph 32% 0.00 in 0.00 W/m2
05:50 60.6 °F 30.6 °F 30.04 in Calm   7.0 mph 32% 0.00 in 0.00 W/m2
05:55 60.4 °F 30.4 °F 30.04 in East 2.0 mph 8.0 mph 32% 0.00 in 0.00 W/m2
06:01 60.2 °F 30.2 °F 30.04 in East 6.0 mph 6.0 mph 32% 0.00 in 0.00 W/m2
06:06 60.0 °F 30.1 °F 30.04 in Calm   8.0 mph 32% 0.00 in 0.00 W/m2
06:11 59.8 °F 29.9 °F 30.04 in East 5.0 mph 8.0 mph 32% 0.00 in 0.00 W/m2
06:16 59.7 °F 29.8 °F 30.04 in ESE 2.0 mph 4.0 mph 32% 0.00 in 0.00 W/m2
06:21 59.6 °F 29.7 °F 30.04 in East 1.0 mph 11.0 mph 32% 0.00 in 0.00 W/m2
06:26 59.5 °F 29.6 °F 30.04 in ESE 5.0 mph 5.0 mph 32% 0.00 in 0.00 W/m2
06:31 59.4 °F 30.3 °F 30.04 in Calm     33% 0.00 in 0.00 W/m2
06:36 59.4 °F 30.3 °F 30.04 in Calm     33% 0.00 in 0.00 W/m2
06:41 59.3 °F 29.5 °F 30.04 in ESE 2.0 mph 2.0 mph 32% 0.00 in 0.00 W/m2
06:51 59.3 °F 29.5 °F 30.05 in ESE 2.0 mph 13.0 mph 32% 0.00 in 0.00 W/m2
06:56 59.2 °F 29.4 °F 30.05 in East 6.0 mph 9.0 mph 32% 0.00 in 0.00 W/m2
07:01 59.2 °F 29.4 °F 30.05 in East 7.0 mph 9.0 mph 32% 0.00 in 5.00 W/m2
07:06 59.1 °F 29.3 °F 30.05 in ESE 4.0 mph 11.0 mph 32% 0.00 in 7.00 W/m2
07:11 59.0 °F 29.2 °F 30.05 in ESE 6.0 mph 11.0 mph 32% 0.00 in 9.00 W/m2
07:16 59.0 °F 29.2 °F 30.05 in East 1.0 mph 7.0 mph 32% 0.00 in 12.00 W/m2
07:21 58.9 °F 29.1 °F 30.05 in East 4.0 mph 9.0 mph 32% 0.00 in 14.00 W/m2
07:26 58.8 °F 29.8 °F 30.06 in ESE 6.0 mph 13.0 mph 33% 0.00 in 16.00 W/m2
07:31 58.7 °F 29.7 °F 30.06 in Calm   9.0 mph 33% 0.00 in 25.00 W/m2
07:36 58.7 °F 28.9 °F 30.06 in Calm   8.0 mph 32% 0.00 in 35.00 W/m2
07:41 58.6 °F 29.6 °F 30.06 in Calm   8.0 mph 33% 0.00 in 51.00 W/m2
07:46 58.6 °F 29.6 °F 30.06 in Calm   6.0 mph 33% 0.00 in 67.00 W/m2
07:51 58.5 °F 29.5 °F 30.06 in Calm   7.0 mph 33% 0.00 in 83.00 W/m2
07:56 58.5 °F 30.2 °F 30.07 in Calm   8.0 mph 34% 0.00 in 98.00 W/m2
08:01 58.5 °F 30.2 °F 30.07 in Calm     34% 0.00 in 116.00 W/m2
08:05 58.3 °F 30.8 °F 30.07 in Calm     35% 0.00 in 137.00 W/m2
08:10 58.2 °F 30.7 °F 30.07 in Calm   1.0 mph 35% 0.00 in 156.00 W/m2
08:16 58.1 °F 32.0 °F 30.07 in Calm   1.0 mph 37% 0.00 in 178.00 W/m2
08:21 58.0 °F 31.2 °F 30.08 in Calm     36% 0.00 in 199.00 W/m2
08:26 57.9 °F 31.8 °F 30.08 in Calm     37% 0.00 in 221.00 W/m2
08:31 57.9 °F 32.5 °F 30.08 in Calm     38% 0.00 in 243.00 W/m2
08:36 58.0 °F 32.6 °F 30.08 in Calm     38% 0.00 in 262.00 W/m2
08:41 58.0 °F 33.2 °F 30.09 in Calm     39% 0.00 in 283.00 W/m2
08:46 58.1 °F 33.3 °F 30.09 in Calm     39% 0.00 in 302.00 W/m2
08:51 58.2 °F 34.0 °F 30.09 in Calm     40% 0.00 in 320.00 W/m2
08:56 58.3 °F 34.1 °F 30.09 in Calm     40% 0.00 in 336.00 W/m2
09:01 58.4 °F 34.2 °F 30.09 in Calm     40% 0.00 in 352.00 W/m2
09:06 58.6 °F 34.4 °F 30.09 in Calm     40% 0.00 in 364.00 W/m2
09:11 58.7 °F 35.1 °F 30.09 in Calm     41% 0.00 in 380.00 W/m2
09:16 59.0 °F 36.0 °F 30.09 in Calm     42% 0.00 in 396.00 W/m2
09:21 59.4 °F 35.7 °F 30.09 in Calm     41% 0.00 in 410.00 W/m2
09:26 59.8 °F 36.1 °F 30.09 in Calm     41% 0.00 in 425.00 W/m2
09:31 60.2 °F 35.8 °F 30.09 in Calm     40% 0.00 in 439.00 W/m2
09:36 60.7 °F 35.6 °F 30.10 in Calm     39% 0.00 in 454.00 W/m2
09:41 61.1 °F 37.9 °F 30.10 in Calm     42% 0.00 in 466.00 W/m2
09:56 62.1 °F 35.5 °F 30.10 in Calm     37% 0.00 in 506.00 W/m2
10:01 62.8 °F 34.0 °F 30.10 in Calm     34% 0.00 in 519.00 W/m2
10:11 64.3 °F 33.0 °F 30.10 in NNE 4.0 mph 4.0 mph 31% 0.00 in 545.00 W/m2
10:16 64.9 °F 33.6 °F 30.09 in Calm   2.0 mph 31% 0.00 in 555.00 W/m2
10:21 65.3 °F 33.9 °F 30.10 in Calm     31% 0.00 in 568.00 W/m2
10:27 65.9 °F 33.6 °F 30.10 in Calm   2.0 mph 30% 0.00 in 578.00 W/m2
10:32 66.3 °F 34.0 °F 30.10 in Calm     30% 0.00 in 589.00 W/m2
10:37 66.6 °F 33.4 °F 30.10 in Calm     29% 0.00 in 599.00 W/m2
10:42 66.9 °F 33.6 °F 30.10 in Calm     29% 0.00 in 610.00 W/m2
10:47 67.2 °F 34.8 °F 30.10 in Calm     30% 0.00 in 621.00 W/m2
10:57 68.1 °F 32.9 °F 30.10 in North 2.0 mph 5.0 mph 27% 0.00 in 638.00 W/m2
11:02 68.6 °F 32.4 °F 30.10 in North 2.0 mph 4.0 mph 26% 0.00 in 649.00 W/m2
11:07 69.0 °F 33.7 °F 30.10 in Calm   1.0 mph 27% 0.00 in 656.00 W/m2
11:12 69.4 °F 32.1 °F 30.10 in North 2.0 mph 5.0 mph 25% 0.00 in 664.00 W/m2
11:17 69.7 °F 33.3 °F 30.10 in Calm   2.0 mph 26% 0.00 in 673.00 W/m2
11:22 70.1 °F 31.7 °F 30.09 in Calm   4.0 mph 24% 0.00 in 682.00 W/m2
11:27 70.4 °F 30.9 °F 30.09 in Calm     23% 0.00 in 687.00 W/m2
11:32 70.5 °F 32.0 °F 30.09 in Calm   2.0 mph 24% 0.00 in 693.00 W/m2
11:37 70.6 °F 33.1 °F 30.10 in Calm   1.0 mph 25% 0.00 in 700.00 W/m2
11:42 70.7 °F 33.2 °F 30.09 in Calm   2.0 mph 25% 0.00 in 705.00 W/m2
11:47 70.9 °F 34.3 °F 30.09 in Calm     26% 0.00 in 710.00 W/m2
11:52 71.1 °F 33.5 °F 30.09 in Calm   3.0 mph 25% 0.00 in 715.00 W/m2
11:57 71.3 °F 33.7 °F 30.09 in Calm   4.0 mph 25% 0.00 in 719.00 W/m2
12:02 71.5 °F 31.8 °F 30.09 in Calm     23% 0.00 in 722.00 W/m2
12:07 71.6 °F 31.9 °F 30.09 in NW 1.0 mph 3.0 mph 23% 0.00 in 726.00 W/m2
12:12 71.7 °F 33.0 °F 30.09 in Calm   2.0 mph 24% 0.00 in 729.00 W/m2
12:17 71.8 °F 33.1 °F 30.08 in Calm     24% 0.00 in 731.00 W/m2
12:22 71.9 °F 33.2 °F 30.08 in Calm   1.0 mph 24% 0.00 in 735.00 W/m2
12:27 72.1 °F 33.3 °F 30.08 in Calm   1.0 mph 24% 0.00 in 737.00 W/m2
12:32 72.3 °F 33.5 °F 30.08 in West 1.0 mph 1.0 mph 24% 0.00 in 737.00 W/m2
12:37 72.5 °F 33.7 °F 30.08 in Calm     24% 0.00 in 740.00 W/m2
12:42 72.9 °F 34.0 °F 30.08 in Calm     24% 0.00 in 740.00 W/m2
12:47 73.2 °F 33.2 °F 30.07 in Calm     23% 0.00 in 740.00 W/m2
12:52 73.6 °F 34.6 °F 30.07 in West 1.0 mph 4.0 mph 24% 0.00 in 740.00 W/m2
12:57 73.9 °F 33.8 °F 30.07 in Calm   3.0 mph 23% 0.00 in 740.00 W/m2
13:07 74.3 °F 34.1 °F 30.07 in Calm   1.0 mph 23% 0.00 in 735.00 W/m2
13:12 74.6 °F 33.3 °F 30.06 in Calm   4.0 mph 22% 0.00 in 733.00 W/m2
13:13 74.7 °F 33.4 °F 30.06 in Calm   4.0 mph 22% 0.00 in 733.00 W/m2
13:18 74.9 °F 33.5 °F 30.06 in West 3.0 mph 6.0 mph 22% 0.00 in 731.00 W/m2
13:23 75.1 °F 33.7 °F 30.06 in Calm   1.0 mph 22% 0.00 in 729.00 W/m2
13:28 75.4 °F 34.0 °F 30.05 in West 3.0 mph 5.0 mph 22% 0.00 in 726.00 W/m2
13:33 75.7 °F 34.2 °F 30.05 in West 2.0 mph 4.0 mph 22% 0.00 in 722.00 W/m2
13:38 75.9 °F 33.2 °F 30.05 in Calm   1.0 mph 21% 0.00 in 719.00 W/m2
13:43 76.2 °F 33.5 °F 30.04 in Calm     21% 0.00 in 715.00 W/m2
13:48 76.6 °F 32.6 °F 30.04 in Calm   1.0 mph 20% 0.00 in 708.00 W/m2
13:53 76.8 °F 34.0 °F 30.04 in Calm   5.0 mph 21% 0.00 in 705.00 W/m2
13:58 77.0 °F 34.1 °F 30.04 in Calm   4.0 mph 21% 0.00 in 698.00 W/m2
14:03 77.3 °F 33.1 °F 30.04 in Calm     20% 0.00 in 694.00 W/m2
14:08 77.5 °F 33.3 °F 30.04 in Calm   3.0 mph 20% 0.00 in 686.00 W/m2
14:13 77.8 °F 33.6 °F 30.04 in Calm   3.0 mph 20% 0.00 in 680.00 W/m2
14:18 78.0 °F 33.7 °F 30.03 in Calm   1.0 mph 20% 0.00 in 673.00 W/m2
14:23 78.2 °F 33.9 °F 30.03 in Calm   4.0 mph 20% 0.00 in 666.00 W/m2
14:28 78.3 °F 32.7 °F 30.03 in Calm   5.0 mph 19% 0.00 in 657.00 W/m2
14:33 78.4 °F 32.8 °F 30.03 in Calm     19% 0.00 in 649.00 W/m2
14:38 78.3 °F 32.7 °F 30.03 in Calm   3.0 mph 19% 0.00 in 638.00 W/m2
14:43 78.2 °F 35.1 °F 30.03 in NW 2.0 mph 3.0 mph 21% 0.00 in 631.00 W/m2
14:48 78.0 °F 33.7 °F 30.03 in WNW 4.0 mph 5.0 mph 20% 0.00 in 617.00 W/m2
14:53 78.0 °F 36.1 °F 30.03 in WNW 1.0 mph 5.0 mph 22% 0.00 in 610.00 W/m2
14:58 78.0 °F 36.1 °F 30.03 in WNW 2.0 mph 5.0 mph 22% 0.00 in 598.00 W/m2
15:03 78.0 °F 37.2 °F 30.03 in Calm   5.0 mph 23% 0.00 in 589.00 W/m2
15:08 78.0 °F 37.2 °F 30.02 in WNW 6.0 mph 6.0 mph 23% 0.00 in 577.00 W/m2
15:13 78.0 °F 38.3 °F 30.02 in West 4.0 mph 5.0 mph 24% 0.00 in 568.00 W/m2
15:18 78.0 °F 38.3 °F 30.02 in West 5.0 mph 5.0 mph 24% 0.00 in 555.00 W/m2
15:23 78.0 °F 39.4 °F 30.02 in Calm   3.0 mph 25% 0.00 in 545.00 W/m2
15:28 78.0 °F 38.3 °F 30.02 in West 3.0 mph 5.0 mph 24% 0.00 in 533.00 W/m2
15:33 78.0 °F 39.4 °F 30.02 in Calm   5.0 mph 25% 0.00 in 520.00 W/m2
15:38 78.0 °F 39.4 °F 30.01 in Calm   1.0 mph 25% 0.00 in 510.00 W/m2
15:43 78.0 °F 39.4 °F 30.02 in Calm   4.0 mph 25% 0.00 in 496.00 W/m2
15:48 77.9 °F 39.3 °F 30.02 in Calm     25% 0.00 in 482.00 W/m2
15:53 77.9 °F 38.2 °F 30.02 in Calm   5.0 mph 24% 0.00 in 468.00 W/m2
15:58 77.8 °F 39.2 °F 30.01 in Calm   5.0 mph 25% 0.00 in 454.00 W/m2
16:03 77.8 °F 38.2 °F 30.01 in West 3.0 mph 3.0 mph 24% 0.00 in 439.00 W/m2
16:08 77.7 °F 38.1 °F 30.01 in Calm   4.0 mph 24% 0.00 in 427.00 W/m2
16:13 77.7 °F 39.1 °F 30.01 in West 2.0 mph 6.0 mph 25% 0.00 in 415.00 W/m2
16:18 77.6 °F 39.0 °F 30.01 in Calm   4.0 mph 25% 0.00 in 399.00 W/m2
16:23 77.6 °F 40.0 °F 30.01 in Calm     26% 0.00 in 383.00 W/m2
16:28 77.5 °F 40.0 °F 30.00 in WSW 4.0 mph 5.0 mph 26% 0.00 in 369.00 W/m2
16:33 77.5 °F 40.0 °F 30.00 in Calm     26% 0.00 in 352.00 W/m2
16:38 77.3 °F 40.8 °F 30.00 in Calm     27% 0.00 in 338.00 W/m2
16:43 77.2 °F 38.7 °F 30.00 in Calm     25% 0.00 in 323.00 W/m2
16:48 77.1 °F 39.6 °F 30.00 in Calm   3.0 mph 26% 0.00 in 308.00 W/m2
16:53 77.1 °F 39.6 °F 30.00 in Calm     26% 0.00 in 290.00 W/m2
16:58 77.0 °F 39.5 °F 30.00 in Calm   3.0 mph 26% 0.00 in 276.00 W/m2
17:03 76.9 °F 39.4 °F 30.00 in Calm     26% 0.00 in 258.00 W/m2
17:09 76.8 °F 39.3 °F 30.00 in WSW 1.0 mph 2.0 mph 26% 0.00 in 243.00 W/m2
17:14 76.7 °F 40.2 °F 30.00 in Calm   3.0 mph 27% 0.00 in 227.00 W/m2
17:19 76.5 °F 40.1 °F 30.00 in Calm   2.0 mph 27% 0.00 in 207.00 W/m2
17:24 76.4 °F 40.0 °F 30.00 in Calm   1.0 mph 27% 0.00 in 188.00 W/m2
17:29 76.1 °F 39.7 °F 30.00 in Calm     27% 0.00 in 172.00 W/m2
17:34 76.0 °F 39.6 °F 30.00 in Calm   1.0 mph 27% 0.00 in 151.00 W/m2
17:39 75.8 °F 40.4 °F 30.00 in Calm     28% 0.00 in 128.00 W/m2
17:44 75.6 °F 41.1 °F 30.00 in Calm     29% 0.00 in 111.00 W/m2
17:49 75.4 °F 41.0 °F 30.00 in Calm     29% 0.00 in 91.00 W/m2
17:54 75.1 °F 40.7 °F 30.00 in Calm     29% 0.00 in 74.00 W/m2
17:59 74.8 °F 41.3 °F 30.00 in Calm     30% 0.00 in 58.00 W/m2
18:04 74.5 °F 41.1 °F 30.00 in Calm   1.0 mph 30% 0.00 in 46.00 W/m2
18:09 74.3 °F 40.9 °F 30.00 in Calm   3.0 mph 30% 0.00 in 33.00 W/m2
18:14 73.9 °F 40.5 °F 30.00 in Calm     30% 0.00 in 25.00 W/m2
18:19 73.5 °F 40.2 °F 30.00 in Calm   2.0 mph 30% 0.00 in 16.00 W/m2
18:20 73.4 °F 41.0 °F 30.00 in Calm   2.0 mph 31% 0.00 in 14.00 W/m2
18:25 73.0 °F 40.6 °F 30.00 in Calm   3.0 mph 31% 0.00 in 12.00 W/m2
18:30 72.4 °F 40.1 °F 30.00 in Calm   1.0 mph 31% 0.00 in 11.00 W/m2
18:35 71.8 °F 39.6 °F 30.00 in Calm   1.0 mph 31% 0.00 in 7.00 W/m2
18:40 71.0 °F 39.7 °F 30.00 in Calm   1.0 mph 32% 0.00 in 5.00 W/m2
18:45 70.5 °F 39.2 °F 30.00 in Calm     32% 0.00 in 0.00 W/m2
18:50 70.1 °F 38.9 °F 30.00 in Calm   3.0 mph 32% 0.00 in 0.00 W/m2
18:55 69.6 °F 38.5 °F 30.01 in Calm     32% 0.00 in 0.00 W/m2
19:01 69.0 °F 38.7 °F 30.01 in Calm     33% 0.00 in 0.00 W/m2
19:06 68.4 °F 39.0 °F 30.01 in Calm     34% 0.00 in 0.00 W/m2
19:11 68.0 °F 38.6 °F 30.01 in Calm     34% 0.00 in 0.00 W/m2
19:16 67.5 °F 38.9 °F 30.01 in Calm     35% 0.00 in 0.00 W/m2
19:20 66.8 °F 38.3 °F 30.01 in Calm     35% 0.00 in 0.00 W/m2
19:26 66.3 °F 37.8 °F 30.02 in Calm     35% 0.00 in 0.00 W/m2
19:31 65.8 °F 38.1 °F 30.02 in Calm     36% 0.00 in 0.00 W/m2
19:36 65.4 °F 37.8 °F 30.01 in Calm     36% 0.00 in 0.00 W/m2
19:41 65.0 °F 37.4 °F 30.02 in Calm     36% 0.00 in 0.00 W/m2
19:46 64.7 °F 37.8 °F 30.02 in Calm     37% 0.00 in 0.00 W/m2
19:51 64.5 °F 37.7 °F 30.02 in Calm     37% 0.00 in 0.00 W/m2
19:56 64.1 °F 37.3 °F 30.02 in Calm     37% 0.00 in 0.00 W/m2
20:01 63.9 °F 37.1 °F 30.02 in Calm     37% 0.00 in 0.00 W/m2
20:06 63.6 °F 36.9 °F 30.02 in Calm     37% 0.00 in 0.00 W/m2
20:14 63.3 °F 37.3 °F 30.02 in Calm     38% 0.00 in 0.00 W/m2
20:21 63.0 °F 37.0 °F 30.02 in Calm     38% 0.00 in 0.00 W/m2
20:26 62.9 °F 36.9 °F 30.02 in Calm     38% 0.00 in 0.00 W/m2
20:31 62.7 °F 36.8 °F 30.02 in Calm     38% 0.00 in 0.00 W/m2
20:36 62.6 °F 36.7 °F 30.02 in Calm     38% 0.00 in 0.00 W/m2
20:41 62.4 °F 36.5 °F 30.02 in Calm     38% 0.00 in 0.00 W/m2
20:46 62.3 °F 36.4 °F 30.02 in Calm     38% 0.00 in 0.00 W/m2
20:51 62.2 °F 36.3 °F 30.02 in Calm     38% 0.00 in 0.00 W/m2
20:57 62.1 °F 36.2 °F 30.02 in Calm     38% 0.00 in 0.00 W/m2
21:02 62.1 °F 36.9 °F 30.02 in Calm     39% 0.00 in 0.00 W/m2
21:07 62.1 °F 36.9 °F 30.02 in Calm     39% 0.00 in 0.00 W/m2
21:12 62.1 °F 36.9 °F 30.02 in Calm     39% 0.00 in 0.00 W/m2
21:17 62.1 °F 36.9 °F 30.02 in Calm     39% 0.00 in 0.00 W/m2
21:22 62.1 °F 36.9 °F 30.02 in Calm     39% 0.00 in 0.00 W/m2
21:27 62.1 °F 36.9 °F 30.02 in Calm     39% 0.00 in 0.00 W/m2
21:32 62.1 °F 36.9 °F 30.02 in Calm     39% 0.00 in 0.00 W/m2
21:37 62.1 °F 36.9 °F 30.02 in Calm     39% 0.00 in 0.00 W/m2
21:42 62.1 °F 36.9 °F 30.02 in Calm     39% 0.00 in 0.00 W/m2
21:47 62.1 °F 36.9 °F 30.02 in Calm     39% 0.00 in 0.00 W/m2
21:52 62.1 °F 36.9 °F 30.02 in Calm   4.0 mph 39% 0.00 in 0.00 W/m2
21:57 62.1 °F 36.9 °F 30.02 in Calm     39% 0.00 in 0.00 W/m2
22:02 62.1 °F 37.5 °F 30.02 in Calm   1.0 mph 40% 0.00 in 0.00 W/m2
22:07 62.0 °F 37.4 °F 30.02 in Calm   6.0 mph 40% 0.00 in 0.00 W/m2
22:12 62.0 °F 38.0 °F 30.02 in Calm   1.0 mph 41% 0.00 in 0.00 W/m2
22:23 62.0 °F 38.0 °F 30.01 in Calm   11.0 mph 41% 0.00 in 0.00 W/m2
22:28 61.9 °F 38.0 °F 30.01 in Calm   8.0 mph 41% 0.00 in 0.00 W/m2
22:33 61.8 °F 37.9 °F 30.01 in ESE 2.0 mph 9.0 mph 41% 0.00 in 0.00 W/m2
22:38 61.8 °F 37.9 °F 30.01 in ESE 5.0 mph 8.0 mph 41% 0.00 in 0.00 W/m2
22:48 61.8 °F 37.9 °F 30.01 in East 2.0 mph 8.0 mph 41% 0.00 in 0.00 W/m2
22:53 61.8 °F 37.9 °F 30.01 in ESE 4.0 mph 14.0 mph 41% 0.00 in 0.00 W/m2
22:58 61.8 °F 37.9 °F 30.01 in East 6.0 mph 11.0 mph 41% 0.00 in 0.00 W/m2
23:03 61.8 °F 37.9 °F 30.01 in ESE 6.0 mph 7.0 mph 41% 0.00 in 0.00 W/m2
23:08 61.8 °F 37.9 °F 30.01 in Calm   13.0 mph 41% 0.00 in 0.00 W/m2
23:13 61.8 °F 37.9 °F 30.01 in Calm   8.0 mph 41% 0.00 in 0.00 W/m2
23:18 61.8 °F 37.9 °F 30.01 in East 5.0 mph 9.0 mph 41% 0.00 in 0.00 W/m2
23:23 61.8 °F 37.9 °F 30.01 in East 4.0 mph 9.0 mph 41% 0.00 in 0.00 W/m2
23:28 61.9 °F 38.0 °F 30.01 in ESE 4.0 mph 8.0 mph 41% 0.00 in 0.00 W/m2
23:33 61.9 °F 38.0 °F 30.01 in ESE 6.0 mph 14.0 mph 41% 0.00 in 0.00 W/m2
23:38 61.9 °F 38.0 °F 30.01 in Calm   11.0 mph 41% 0.00 in 0.00 W/m2
23:43 62.0 °F 37.4 °F 30.01 in Calm   12.0 mph 40% 0.00 in 0.00 W/m2
23:48 62.0 °F 37.4 °F 30.01 in ESE 7.0 mph 7.0 mph 40% 0.00 in 0.00 W/m2
23:53 62.0 °F 37.4 °F 30.01 in East 6.0 mph 11.0 mph 40% 0.00 in 0.00 W/m2
23:58 62.0 °F 37.4 °F 30.01 in East 4.0 mph 8.0 mph 40% 0.00 in 0.00 W/m2
Foresthill Weather
 WU-history PHP script courtesy of   Juneau County Weather.
powered by Cumulus v1.9.3 (1059)
Ambient Weather VWS v14.00
Top Contact Website Map Copyright © 2007 - 2018 Foresthillweather.com Never base important decisions on this or any weather information obtained from the Internet